| time (UTC) | temp F | wind direction | speed MPH | gust MPH | rain 1hr in | rain 24hr in | rain mn in | humidity % | barometer mb |
| 20260510204617 | 86 | 174 | 1.0 | 2.0 | 0.00 | 0.00 | 0.00 | 31 | 1013.5 |
| 20260510204114 | 86 | 147 | 1.0 | 2.0 | 0.00 | 0.00 | 0.00 | 32 | 1013.6 |
| 20260510203610 | 86 | 205 | 2.0 | 2.0 | 0.00 | 0.00 | 0.00 | 31 | 1013.5 |
| 20260510203108 | 87 | 179 | 2.0 | 10.0 | 0.00 | 0.00 | 0.00 | 32 | 1013.6 |
| 20260510202606 | 87 | 158 | 3.0 | 4.0 | 0.00 | 0.00 | 0.00 | 30 | 1013.6 |
| 20260510202057 | 87 | 173 | 2.0 | 4.0 | 0.00 | 0.00 | 0.00 | 32 | 1013.7 |
| 20260510201554 | 88 | 106 | 0.0 | 2.0 | 0.00 | 0.00 | 0.00 | 30 | 1013.6 |
| 20260510201051 | 87 | 169 | 0.0 | 1.0 | 0.00 | 0.00 | 0.00 | 34 | 1013.7 |
| 20260510200547 | 87 | 217 | 1.0 | 6.0 | 0.00 | 0.00 | 0.00 | 31 | 1013.9 |
| 20260510200045 | 88 | 150 | 0.0 | 2.0 | 0.00 | 0.00 | 0.00 | 31 | 1013.9 |
| 20260510195543 | 88 | 135 | 1.0 | 2.0 | 0.00 | 0.00 | 0.00 | 31 | 1013.9 |
| 20260510195038 | 86 | 184 | 0.0 | 2.0 | 0.00 | 0.00 | 0.00 | 31 | 1014.0 |
| 20260510194533 | 86 | 161 | 1.0 | 1.0 | 0.00 | 0.00 | 0.00 | 31 | 1014.0 |
| 20260510194030 | 84 | 140 | 1.0 | 4.0 | 0.00 | 0.00 | 0.00 | 33 | 1014.1 |
| 20260510193525 | 84 | 158 | 0.0 | 3.0 | 0.00 | 0.00 | 0.00 | 34 | 1014.4 |
| 20260510193021 | 86 | 164 | 2.0 | 3.0 | 0.00 | 0.00 | 0.00 | 33 | 1014.3 |
| 20260510192515 | 82 | 167 | 0.0 | 1.0 | 0.00 | 0.00 | 0.00 | 35 | 1014.4 |
| 20260510192012 | 83 | 169 | 1.0 | 2.0 | 0.00 | 0.00 | 0.00 | 37 | 1014.3 |
| 20260510191509 | 85 | 189 | 1.0 | 2.0 | 0.00 | 0.00 | 0.00 | 33 | 1014.2 |
| 20260510191005 | 87 | 194 | 1.0 | 3.0 | 0.00 | 0.00 | 0.00 | 32 | 1014.4 |
| 20260510190503 | 86 | 151 | 1.0 | 2.0 | 0.00 | 0.00 | 0.00 | 32 | 1014.4 |
| 20260510185959 | 85 | 124 | 0.0 | 1.0 | 0.00 | 0.00 | 0.00 | 32 | 1014.6 |
| 20260510185456 | 87 | 165 | 0.0 | 2.0 | 0.00 | 0.00 | 0.00 | 31 | 1014.7 |
| 20260510184954 | 86 | 204 | 2.0 | 3.0 | 0.00 | 0.00 | 0.00 | 32 | 1014.7 |
| 20260510184450 | 85 | 117 | 2.0 | 3.0 | 0.00 | 0.00 | 0.00 | 33 | 1014.6 |
| 20260510183945 | 87 | 135 | 4.0 | 7.0 | 0.00 | 0.00 | 0.00 | 31 | 1014.8 |
| 20260510183442 | 87 | 202 | 2.0 | 3.0 | 0.00 | 0.00 | 0.00 | 30 | 1014.7 |
| 20260510182942 | 86 | 166 | 0.0 | 1.0 | 0.00 | 0.00 | 0.00 | 31 | 1014.6 |
| 20260510182438 | 85 | 172 | 1.0 | 4.0 | 0.00 | 0.00 | 0.00 | 32 | 1014.5 |
| 20260510181933 | 86 | 151 | 1.0 | 2.0 | 0.00 | 0.00 | 0.00 | 32 | 1014.7 |
| 20260510181432 | 86 | 142 | 3.0 | 6.0 | 0.00 | 0.00 | 0.00 | 32 | 1014.7 |
| 20260510180928 | 85 | 160 | 0.0 | 2.0 | 0.00 | 0.00 | 0.00 | 36 | 1014.7 |
| 20260510180425 | 85 | 159 | 1.0 | 6.0 | 0.00 | 0.00 | 0.00 | 34 | 1014.8 |
| 20260510175922 | 85 | 252 | 1.0 | 3.0 | 0.00 | 0.00 | 0.00 | 33 | 1014.9 |
| 20260510175418 | 85 | 125 | 1.0 | 3.0 | 0.00 | 0.00 | 0.00 | 35 | 1014.9 |
| 20260510174914 | 85 | 128 | 0.0 | 3.0 | 0.00 | 0.00 | 0.00 | 36 | 1014.9 |
| 20260510174412 | 85 | 184 | 1.0 | 2.0 | 0.00 | 0.00 | 0.00 | 34 | 1014.9 |
| 20260510173908 | 85 | 204 | 2.0 | 3.0 | 0.00 | 0.00 | 0.00 | 35 | 1014.7 |
| 20260510173404 | 85 | 147 | 1.0 | 3.0 | 0.00 | 0.00 | 0.00 | 33 | 1015.0 |
| 20260510172900 | 85 | 151 | 1.0 | 4.0 | 0.00 | 0.00 | 0.00 | 33 | 1014.7 |
| 20260510172356 | 84 | 172 | 1.0 | 2.0 | 0.00 | 0.00 | 0.00 | 35 | 1014.8 |
| 20260510171852 | 85 | 169 | 1.0 | 3.0 | 0.00 | 0.00 | 0.00 | 31 | 1015.1 |
| 20260510171350 | 85 | 305 | 1.0 | 2.0 | 0.00 | 0.00 | 0.00 | 33 | 1015.1 |
| 20260510170847 | 84 | 182 | 1.0 | 1.0 | 0.00 | 0.00 | 0.00 | 34 | 1015.2 |
| 20260510170343 | 84 | 178 | 1.0 | 3.0 | 0.00 | 0.00 | 0.00 | 33 | 1015.2 |
| 20260510165838 | 85 | 198 | 1.0 | 4.0 | 0.00 | 0.00 | 0.00 | 36 | 1015.4 |
| 20260510165335 | 84 | 163 | 1.0 | 2.0 | 0.00 | 0.00 | 0.00 | 39 | 1015.2 |
| 20260510164833 | 84 | 139 | 2.0 | 4.0 | 0.00 | 0.00 | 0.00 | 36 | 1015.4 |
| 20260510164330 | 84 | 166 | 0.0 | 1.0 | 0.00 | 0.00 | 0.00 | 34 | 1015.3 |
| 20260510163829 | 83 | 172 | 1.0 | 1.0 | 0.00 | 0.00 | 0.00 | 36 | 1015.3 |
| 20260510163326 | 84 | 201 | 2.0 | 3.0 | 0.00 | 0.00 | 0.00 | 34 | 1015.4 |
| 20260510162825 | 84 | 166 | 0.0 | 2.0 | 0.00 | 0.00 | 0.00 | 36 | 1015.3 |
| 20260510162323 | 83 | 337 | 2.0 | 2.0 | 0.00 | 0.00 | 0.00 | 37 | 1015.4 |
| 20260510161819 | 82 | 240 | 2.0 | 2.0 | 0.00 | 0.00 | 0.00 | 39 | 1015.4 |
| 20260510161314 | 81 | 154 | 0.0 | 1.0 | 0.00 | 0.00 | 0.00 | 40 | 1015.7 |
| 20260510160812 | 82 | 213 | 2.0 | 4.0 | 0.00 | 0.00 | 0.00 | 36 | 1015.6 |
| 20260510160308 | 83 | 147 | 0.0 | 2.0 | 0.00 | 0.00 | 0.00 | 41 | 1015.5 |
| 20260510155803 | 83 | 181 | 0.0 | 1.0 | 0.00 | 0.00 | 0.00 | 39 | 1015.7 |
| 20260510155259 | 82 | 153 | 0.0 | 2.0 | 0.00 | 0.00 | 0.00 | 38 | 1015.7 |
| 20260510154755 | 83 | 152 | 0.0 | 1.0 | 0.00 | 0.00 | 0.00 | 41 | 1015.9 |
| 20260510154251 | 82 | 160 | 1.0 | 2.0 | 0.00 | 0.00 | 0.00 | 40 | 1015.8 |
| 20260510153746 | 82 | 122 | 1.0 | 3.0 | 0.00 | 0.00 | 0.00 | 42 | 1015.7 |
| 20260510153242 | 81 | 147 | 0.0 | 3.0 | 0.00 | 0.00 | 0.00 | 39 | 1015.9 |
| 20260510152734 | 82 | 144 | 0.0 | 2.0 | 0.00 | 0.00 | 0.00 | 39 | 1016.0 |
| 20260510152230 | 81 | 143 | 0.0 | 1.0 | 0.00 | 0.00 | 0.00 | 43 | 1015.9 |
| 20260510151727 | 80 | 197 | 1.0 | 2.0 | 0.00 | 0.00 | 0.00 | 42 | 1016.0 |
| 20260510151226 | 80 | 94 | 0.0 | 1.0 | 0.00 | 0.00 | 0.00 | 40 | 1015.8 |
| 20260510150721 | 80 | 175 | 1.0 | 3.0 | 0.00 | 0.00 | 0.00 | 40 | 1016.1 |
| 20260510150216 | 81 | 146 | 1.0 | 3.0 | 0.00 | 0.00 | 0.00 | 42 | 1016.0 |
| 20260510145713 | 80 | 164 | 0.0 | 3.0 | 0.00 | 0.00 | 0.00 | 41 | 1016.2 |
| 20260510145209 | 80 | 181 | 2.0 | 3.0 | 0.00 | 0.00 | 0.00 | 40 | 1016.2 |
| 20260510144706 | 79 | 151 | 0.0 | 2.0 | 0.00 | 0.00 | 0.00 | 41 | 1016.1 |
| 20260510144203 | 79 | 150 | 0.0 | 1.0 | 0.00 | 0.00 | 0.00 | 41 | 1015.9 |
| 20260510143657 | 79 | 126 | 1.0 | 1.0 | 0.00 | 0.00 | 0.00 | 40 | 1015.8 |
| 20260510143154 | 79 | 168 | 1.0 | 2.0 | 0.00 | 0.00 | 0.00 | 41 | 1015.9 |
| 20260510142650 | 78 | 128 | 0.0 | 1.0 | 0.00 | 0.00 | 0.00 | 44 | 1015.8 |
| 20260510142147 | 77 | 145 | 0.0 | 2.0 | 0.00 | 0.00 | 0.00 | 46 | 1015.8 |
| 20260510141644 | 77 | 338 | 2.0 | 2.0 | 0.00 | 0.00 | 0.00 | 45 | 1015.8 |
| 20260510141142 | 77 | 193 | 1.0 | 1.0 | 0.00 | 0.00 | 0.00 | 46 | 1015.8 |
| 20260510140638 | 78 | 88 | 0.0 | 2.0 | 0.00 | 0.00 | 0.00 | 46 | 1015.9 |
| 20260510140137 | 78 | 156 | 0.0 | 1.0 | 0.00 | 0.00 | 0.00 | 48 | 1015.8 |
| 20260510135633 | 76 | 58 | 1.0 | 2.0 | 0.00 | 0.00 | 0.00 | 50 | 1015.7 |
| 20260510135129 | 76 | 146 | 0.0 | 1.0 | 0.00 | 0.00 | 0.00 | 55 | 1015.8 |
| 20260510134626 | 75 | 107 | 1.0 | 2.0 | 0.00 | 0.00 | 0.00 | 52 | 1015.7 |
| 20260510134124 | 75 | 148 | 0.0 | 3.0 | 0.00 | 0.00 | 0.00 | 59 | 1015.6 |
| 20260510133620 | 75 | 169 | 1.0 | 1.0 | 0.00 | 0.00 | 0.00 | 56 | 1015.7 |
| 20260510133115 | 74 | 139 | 1.0 | 1.0 | 0.00 | 0.00 | 0.00 | 56 | 1015.8 |
| 20260510132612 | 74 | 324 | 2.0 | 3.0 | 0.00 | 0.00 | 0.00 | 58 | 1015.9 |
| 20260510132109 | 74 | 149 | 0.0 | 2.0 | 0.00 | 0.00 | 0.00 | 61 | 1015.9 |
| 20260510131607 | 74 | 140 | 0.0 | 1.0 | 0.00 | 0.00 | 0.00 | 62 | 1015.8 |
| 20260510131104 | 73 | 136 | 0.0 | 1.0 | 0.00 | 0.00 | 0.00 | 61 | 1015.8 |
| 20260510130600 | 72 | 156 | 0.0 | 1.0 | 0.00 | 0.00 | 0.00 | 63 | 1015.7 |
| 20260510130058 | 71 | 141 | 1.0 | 1.0 | 0.00 | 0.00 | 0.00 | 64 | 1015.5 |
| 20260510125554 | 71 | 156 | 0.0 | 3.0 | 0.00 | 0.00 | 0.00 | 66 | 1015.4 |
| 20260510125050 | 71 | 154 | 0.0 | 1.0 | 0.00 | 0.00 | 0.00 | 68 | 1015.6 |
| 20260510124547 | 70 | 20 | 0.0 | 1.0 | 0.00 | 0.00 | 0.00 | 67 | 1015.5 |
| 20260510124044 | 69 | 148 | 0.0 | 2.0 | 0.00 | 0.00 | 0.00 | 70 | 1015.4 |
| 20260510123539 | 69 | 155 | 1.0 | 2.0 | 0.00 | 0.00 | 0.00 | 69 | 1015.5 |
| 20260510123036 | 69 | 142 | 0.0 | 1.0 | 0.00 | 0.00 | 0.00 | 72 | 1015.6 |
| 20260510122531 | 68 | 98 | 0.0 | 0.0 | 0.00 | 0.00 | 0.00 | 74 | 1015.6 |
| 20260510122028 | 67 | 145 | 0.0 | 1.0 | 0.00 | 0.00 | 0.00 | 77 | 1015.2 |
| 20260510121525 | 66 | 132 | 0.0 | 1.0 | 0.00 | 0.00 | 0.00 | 78 | 1015.3 |
| 20260510121022 | 66 | 148 | 0.0 | 1.0 | 0.00 | 0.00 | 0.00 | 79 | 1015.1 |
| 20260510120520 | 65 | 153 | 0.0 | 2.0 | 0.00 | 0.00 | 0.00 | 80 | 1015.1 |
| 20260510120016 | 64 | 146 | 0.0 | 0.0 | 0.00 | 0.00 | 0.00 | 84 | 1014.9 |
| 20260510115512 | 62 | 164 | 0.0 | 1.0 | 0.00 | 0.00 | 0.00 | 87 | 1014.9 |
| 20260510115009 | 60 | 159 | 0.0 | 0.0 | 0.00 | 0.00 | 0.00 | 92 | 1014.9 |
| 20260510114505 | 59 | 158 | 0.0 | 0.0 | 0.00 | 0.00 | 0.00 | 96 | 1014.7 |
| 20260510114001 | 59 | 162 | 0.0 | 0.0 | 0.00 | 0.00 | 0.00 | 99 | 1014.7 |
| 20260510113456 | 58 | 156 | 0.0 | 0.0 | 0.00 | 0.00 | 0.00 | 99 | 1014.6 |
| 20260510112954 | 58 | 150 | 0.0 | 0.0 | 0.00 | 0.00 | 0.00 | 99 | 1014.8 |
| 20260510112451 | 58 | 146 | 0.0 | 0.0 | 0.00 | 0.00 | 0.00 | 99 | 1014.4 |
| 20260510111947 | 58 | 157 | 0.0 | 0.0 | 0.00 | 0.00 | 0.00 | 99 | 1014.6 |
| 20260510111443 | 57 | 165 | 1.0 | 1.0 | 0.00 | 0.00 | 0.00 | 99 | 1014.4 |
| 20260510110940 | 57 | 154 | 0.0 | 0.0 | 0.00 | 0.00 | 0.00 | 99 | 1014.2 |
| 20260510110436 | 56 | 156 | 0.0 | 0.0 | 0.00 | 0.00 | 0.00 | 99 | 1014.2 |
| 20260510105932 | 56 | 157 | 0.0 | 0.0 | 0.00 | 0.00 | 0.00 | 99 | 1014.4 |
| 20260510105427 | 56 | 157 | 0.0 | 0.0 | 0.00 | 0.00 | 0.00 | 99 | 1014.2 |
| 20260510104922 | 56 | 157 | 0.0 | 0.0 | 0.00 | 0.00 | 0.00 | 99 | 1014.1 |
| 20260510104419 | 55 | 157 | 0.0 | 0.0 | 0.00 | 0.00 | 0.00 | 99 | 1014.1 |
| 20260510103916 | 55 | 157 | 0.0 | 0.0 | 0.00 | 0.00 | 0.00 | 99 | 1014.0 |
| 20260510103413 | 55 | 158 | 0.0 | 0.0 | 0.00 | 0.00 | 0.00 | 99 | 1013.9 |
| 20260510102908 | 55 | 158 | 0.0 | 0.0 | 0.00 | 0.00 | 0.00 | 99 | 1013.8 |
| 20260510102404 | 54 | 158 | 0.0 | 0.0 | 0.00 | 0.00 | 0.00 | 99 | 1013.8 |
| 20260510101902 | 54 | 151 | 0.0 | 0.0 | 0.00 | 0.00 | 0.00 | 99 | 1013.8 |
| 20260510101359 | 54 | 155 | 0.0 | 0.0 | 0.00 | 0.00 | 0.00 | 99 | 1013.5 |
| 20260510100856 | 54 | 151 | 0.0 | 0.0 | 0.00 | 0.00 | 0.00 | 99 | 1013.4 |
| 20260510100353 | 54 | 148 | 0.0 | 0.0 | 0.00 | 0.00 | 0.00 | 99 | 1013.6 |
| 20260510095850 | 54 | 135 | 0.0 | 0.0 | 0.00 | 0.00 | 0.00 | 99 | 1013.4 |
| 20260510095344 | 55 | 141 | 0.0 | 0.0 | 0.00 | 0.00 | 0.00 | 99 | 1013.3 |
| 20260510094844 | 55 | 136 | 0.0 | 0.0 | 0.00 | 0.00 | 0.00 | 99 | 1013.4 |
| 20260510094339 | 54 | 144 | 0.0 | 0.0 | 0.00 | 0.00 | 0.00 | 99 | 1013.3 |
| 20260510093836 | 54 | 144 | 0.0 | 0.0 | 0.00 | 0.00 | 0.00 | 99 | 1013.4 |
| 20260510093332 | 54 | 145 | 0.0 | 0.0 | 0.00 | 0.00 | 0.00 | 99 | 1013.5 |
| 20260510092828 | 54 | 144 | 0.0 | 0.0 | 0.00 | 0.00 | 0.00 | 99 | 1013.3 |
| 20260510092324 | 55 | 142 | 0.0 | 0.0 | 0.00 | 0.00 | 0.00 | 99 | 1013.3 |
| 20260510091820 | 55 | 145 | 0.0 | 0.0 | 0.00 | 0.00 | 0.00 | 99 | 1013.2 |
| 20260510091318 | 55 | 145 | 0.0 | 0.0 | 0.00 | 0.00 | 0.00 | 99 | 1013.1 |
| 20260510090814 | 55 | 143 | 0.0 | 0.0 | 0.00 | 0.00 | 0.00 | 99 | 1013.1 |
| 20260510090311 | 55 | 145 | 0.0 | 0.0 | 0.00 | 0.00 | 0.00 | 99 | 1012.9 |
| 20260510085807 | 55 | 145 | 0.0 | 0.0 | 0.00 | 0.00 | 0.00 | 98 | 1012.9 |
| 20260510085307 | 56 | 145 | 0.0 | 0.0 | 0.00 | 0.00 | 0.00 | 98 | 1012.7 |
| 20260510084802 | 56 | 145 | 0.0 | 0.0 | 0.00 | 0.00 | 0.00 | 98 | 1012.8 |
| 20260510084300 | 57 | 145 | 0.0 | 0.0 | 0.00 | 0.00 | 0.00 | 98 | 1012.8 |
| 20260510083756 | 57 | 151 | 0.0 | 0.0 | 0.00 | 0.00 | 0.00 | 98 | 1012.7 |
| 20260510083254 | 57 | 151 | 0.0 | 0.0 | 0.00 | 0.00 | 0.00 | 98 | 1012.8 |
| 20260510082749 | 57 | 151 | 0.0 | 0.0 | 0.00 | 0.00 | 0.00 | 98 | 1012.9 |
| 20260510082245 | 57 | 151 | 0.0 | 0.0 | 0.00 | 0.00 | 0.00 | 97 | 1012.8 |
| 20260510081744 | 57 | 150 | 0.0 | 0.0 | 0.00 | 0.00 | 0.00 | 97 | 1012.8 |
| 20260510081241 | 58 | 151 | 0.0 | 0.0 | 0.00 | 0.00 | 0.00 | 97 | 1012.8 |
| 20260510080736 | 58 | 151 | 0.0 | 0.0 | 0.00 | 0.00 | 0.00 | 97 | 1012.7 |
| 20260510080232 | 58 | 151 | 0.0 | 0.0 | 0.00 | 0.00 | 0.00 | 97 | 1012.6 |
| 20260510075729 | 58 | 151 | 0.0 | 0.0 | 0.00 | 0.00 | 0.00 | 96 | 1012.7 |
| 20260510075227 | 58 | 151 | 0.0 | 0.0 | 0.00 | 0.00 | 0.00 | 96 | 1012.6 |
| 20260510074724 | 58 | 153 | 0.0 | 0.0 | 0.00 | 0.00 | 0.00 | 96 | 1012.6 |
| 20260510074220 | 58 | 151 | 0.0 | 0.0 | 0.00 | 0.00 | 0.00 | 95 | 1012.5 |
| 20260510073717 | 59 | 151 | 0.0 | 0.0 | 0.00 | 0.00 | 0.00 | 95 | 1012.5 |
| 20260510073212 | 59 | 151 | 0.0 | 0.0 | 0.00 | 0.00 | 0.00 | 94 | 1012.5 |
| 20260510072708 | 59 | 151 | 0.0 | 0.0 | 0.00 | 0.00 | 0.00 | 94 | 1012.6 |
| 20260510072205 | 59 | 145 | 0.0 | 0.0 | 0.00 | 0.00 | 0.00 | 93 | 1012.5 |
| 20260510071701 | 60 | 145 | 0.0 | 0.0 | 0.00 | 0.00 | 0.00 | 93 | 1012.4 |
| 20260510071159 | 60 | 149 | 0.0 | 0.0 | 0.00 | 0.00 | 0.00 | 92 | 1012.4 |
| 20260510070656 | 60 | 149 | 0.0 | 0.0 | 0.00 | 0.00 | 0.00 | 92 | 1012.5 |
| 20260510070154 | 61 | 149 | 0.0 | 0.0 | 0.00 | 0.00 | 0.00 | 91 | 1012.5 |
| 20260510065649 | 61 | 149 | 0.0 | 0.0 | 0.00 | 0.00 | 0.00 | 91 | 1012.7 |
| 20260510065145 | 61 | 141 | 0.0 | 0.0 | 0.00 | 0.00 | 0.00 | 90 | 1012.5 |
| 20260510064642 | 62 | 136 | 0.0 | 0.0 | 0.00 | 0.00 | 0.00 | 89 | 1012.6 |
| 20260510064139 | 62 | 151 | 0.0 | 0.0 | 0.00 | 0.00 | 0.00 | 89 | 1012.6 |
| 20260510063636 | 62 | 151 | 0.0 | 0.0 | 0.00 | 0.00 | 0.00 | 88 | 1012.4 |
| 20260510063132 | 63 | 152 | 0.0 | 0.0 | 0.00 | 0.00 | 0.00 | 88 | 1012.5 |
| 20260510062628 | 63 | 141 | 0.0 | 0.0 | 0.00 | 0.00 | 0.00 | 87 | 1012.7 |
| 20260510062124 | 63 | 141 | 0.0 | 0.0 | 0.00 | 0.00 | 0.00 | 86 | 1012.4 |
| 20260510061620 | 64 | 153 | 0.0 | 0.0 | 0.00 | 0.00 | 0.00 | 86 | 1012.5 |
| 20260510061118 | 64 | 156 | 0.0 | 1.0 | 0.00 | 0.00 | 0.00 | 85 | 1012.5 |
| 20260510060613 | 65 | 151 | 0.0 | 0.0 | 0.00 | 0.00 | 0.00 | 84 | 1012.4 |
| 20260510060110 | 65 | 150 | 0.0 | 2.0 | 0.00 | 0.00 | 0.00 | 83 | 1012.4 |
| 20260510055606 | 65 | 153 | 0.0 | 2.0 | 0.00 | 0.00 | 0.00 | 83 | 1012.4 |
| 20260510055104 | 66 | 161 | 0.0 | 1.0 | 0.00 | 0.00 | 0.00 | 83 | 1012.5 |
| 20260510054600 | 66 | 153 | 0.0 | 2.0 | 0.00 | 0.00 | 0.00 | 82 | 1012.5 |
| 20260510054055 | 66 | 156 | 0.0 | 2.0 | 0.00 | 0.00 | 0.00 | 82 | 1012.5 |
| 20260510053549 | 66 | 151 | 0.0 | 1.0 | 0.00 | 0.00 | 0.00 | 82 | 1012.6 |
| 20260510053047 | 66 | 164 | 0.0 | 3.0 | 0.00 | 0.00 | 0.00 | 82 | 1012.4 |
| 20260510052542 | 66 | 99 | 0.0 | 2.0 | 0.00 | 0.00 | 0.00 | 82 | 1012.5 |
| 20260510052038 | 66 | 153 | 0.0 | 1.0 | 0.00 | 0.00 | 0.00 | 82 | 1012.4 |
| 20260510051534 | 66 | 149 | 0.0 | 2.0 | 0.00 | 0.00 | 0.00 | 82 | 1012.4 |
| 20260510051031 | 66 | 141 | 0.0 | 1.0 | 0.00 | 0.00 | 0.00 | 82 | 1012.7 |
| 20260510050528 | 66 | 155 | 1.0 | 1.0 | 0.00 | 0.00 | 0.00 | 82 | 1012.5 |
| 20260510050026 | 66 | 160 | 0.0 | 3.0 | 0.00 | 0.00 | 0.00 | 81 | 1012.5 |
| 20260510045522 | 66 | 135 | 0.0 | 0.0 | 0.00 | 0.00 | 0.00 | 81 | 1012.5 |
| 20260510045018 | 66 | 151 | 0.0 | 1.0 | 0.00 | 0.00 | 0.00 | 80 | 1012.7 |
| 20260510044515 | 66 | 160 | 0.0 | 2.0 | 0.00 | 0.00 | 0.00 | 81 | 1012.6 |
| 20260510044014 | 65 | 146 | 0.0 | 0.0 | 0.00 | 0.00 | 0.00 | 82 | 1012.8 |
| 20260510043513 | 66 | 164 | 0.0 | 0.0 | 0.00 | 0.00 | 0.00 | 80 | 1012.6 |
| 20260510043009 | 66 | 160 | 2.0 | 2.0 | 0.00 | 0.00 | 0.00 | 81 | 1012.5 |
| 20260510042503 | 65 | 158 | 0.0 | 0.0 | 0.00 | 0.00 | 0.00 | 81 | 1012.4 |
| 20260510041958 | 65 | 134 | 1.0 | 2.0 | 0.00 | 0.00 | 0.00 | 81 | 1012.6 |
| 20260510041455 | 65 | 149 | 0.0 | 0.0 | 0.00 | 0.00 | 0.00 | 81 | 1012.7 |
| 20260510040954 | 65 | 151 | 0.0 | 1.0 | 0.00 | 0.00 | 0.00 | 81 | 1012.4 |
| 20260510040450 | 65 | 151 | 0.0 | 0.0 | 0.00 | 0.00 | 0.00 | 80 | 1012.4 |
| 20260510035946 | 65 | 154 | 2.0 | 7.0 | 0.00 | 0.00 | 0.00 | 80 | 1012.6 |
| 20260510035442 | 64 | 161 | 0.0 | 1.0 | 0.00 | 0.00 | 0.00 | 80 | 1012.5 |
| 20260510034937 | 64 | 165 | 0.0 | 1.0 | 0.00 | 0.00 | 0.00 | 81 | 1012.4 |
| 20260510034436 | 63 | 136 | 0.0 | 0.0 | 0.00 | 0.00 | 0.00 | 81 | 1012.4 |
| 20260510033932 | 63 | 154 | 0.0 | 0.0 | 0.00 | 0.00 | 0.00 | 81 | 1012.3 |
| 20260510033428 | 63 | 144 | 0.0 | 0.0 | 0.00 | 0.00 | 0.00 | 81 | 1012.4 |
| 20260510032925 | 63 | 141 | 0.0 | 0.0 | 0.00 | 0.00 | 0.00 | 81 | 1012.2 |
| 20260510032421 | 63 | 145 | 0.0 | 0.0 | 0.00 | 0.00 | 0.00 | 81 | 1012.2 |
| 20260510031916 | 63 | 151 | 0.0 | 0.0 | 0.00 | 0.00 | 0.00 | 80 | 1012.3 |
| 20260510031413 | 64 | 145 | 0.0 | 0.0 | 0.00 | 0.00 | 0.00 | 80 | 1012.2 |
| 20260510030912 | 64 | 151 | 0.0 | 0.0 | 0.00 | 0.00 | 0.00 | 79 | 1012.3 |
| 20260510030409 | 64 | 151 | 0.0 | 0.0 | 0.00 | 0.00 | 0.00 | 78 | 1012.3 |
| 20260510025907 | 64 | 154 | 0.0 | 2.0 | 0.00 | 0.00 | 0.00 | 77 | 1012.2 |
| 20260510025404 | 65 | 151 | 0.0 | 0.0 | 0.00 | 0.00 | 0.00 | 77 | 1011.9 |
| 20260510024901 | 65 | 151 | 0.0 | 0.0 | 0.00 | 0.00 | 0.00 | 76 | 1012.2 |
| 20260510024357 | 65 | 151 | 0.0 | 0.0 | 0.00 | 0.00 | 0.00 | 77 | 1012.1 |
| 20260510023853 | 65 | 154 | 0.0 | 0.0 | 0.00 | 0.00 | 0.00 | 76 | 1012.0 |
| 20260510023350 | 65 | 123 | 0.0 | 0.0 | 0.00 | 0.00 | 0.00 | 77 | 1012.0 |
| 20260510022848 | 64 | 160 | 0.0 | 0.0 | 0.00 | 0.00 | 0.00 | 77 | 1011.8 |
| 20260510022347 | 65 | 150 | 0.0 | 0.0 | 0.00 | 0.00 | 0.00 | 76 | 1012.0 |
| 20260510021845 | 65 | 161 | 0.0 | 0.0 | 0.00 | 0.00 | 0.00 | 76 | 1011.9 |
| 20260510021344 | 64 | 137 | 0.0 | 0.0 | 0.00 | 0.00 | 0.00 | 76 | 1011.8 |
| 20260510020840 | 64 | 141 | 0.0 | 0.0 | 0.00 | 0.00 | 0.00 | 76 | 1011.6 |
| 20260510020335 | 64 | 145 | 0.0 | 0.0 | 0.00 | 0.00 | 0.00 | 76 | 1011.7 |
| 20260510015831 | 64 | 151 | 0.0 | 0.0 | 0.00 | 0.00 | 0.00 | 75 | 1011.4 |
| 20260510015327 | 65 | 151 | 0.0 | 0.0 | 0.00 | 0.00 | 0.00 | 75 | 1011.3 |
| 20260510014822 | 65 | 146 | 0.0 | 0.0 | 0.00 | 0.00 | 0.00 | 74 | 1011.3 |
| 20260510014320 | 65 | 141 | 0.0 | 0.0 | 0.00 | 0.00 | 0.00 | 74 | 1011.2 |
| 20260510013816 | 65 | 151 | 0.0 | 0.0 | 0.00 | 0.00 | 0.00 | 73 | 1011.2 |
| 20260510013311 | 66 | 151 | 0.0 | 0.0 | 0.00 | 0.00 | 0.00 | 72 | 1011.5 |
| 20260510012806 | 66 | 151 | 0.0 | 0.0 | 0.00 | 0.00 | 0.00 | 72 | 1011.5 |
| 20260510012300 | 66 | 152 | 0.0 | 0.0 | 0.00 | 0.00 | 0.00 | 71 | 1011.2 |
| 20260510011755 | 66 | 150 | 0.0 | 0.0 | 0.00 | 0.00 | 0.00 | 71 | 1011.0 |
| 20260510011251 | 66 | 151 | 0.0 | 0.0 | 0.00 | 0.00 | 0.00 | 71 | 1011.2 |
| 20260510010748 | 66 | 144 | 0.0 | 0.0 | 0.00 | 0.00 | 0.00 | 70 | 1011.0 |
| 20260510010244 | 66 | 144 | 0.0 | 0.0 | 0.00 | 0.00 | 0.00 | 70 | 1011.0 |
| 20260510005742 | 66 | 149 | 0.0 | 0.0 | 0.00 | 0.00 | 0.00 | 69 | 1010.9 |
| 20260510005238 | 66 | 149 | 0.0 | 0.0 | 0.00 | 0.00 | 0.00 | 68 | 1011.0 |
| 20260510004736 | 67 | 148 | 0.0 | 0.0 | 0.00 | 0.00 | 0.00 | 67 | 1010.9 |
| 20260510004233 | 67 | 148 | 0.0 | 0.0 | 0.00 | 0.00 | 0.00 | 67 | 1010.6 |
| 20260510003731 | 67 | 151 | 0.0 | 0.0 | 0.00 | 0.00 | 0.00 | 66 | 1010.8 |
| 20260510003227 | 68 | 153 | 0.0 | 0.0 | 0.00 | 0.00 | 0.00 | 65 | 1010.4 |
| 20260510002725 | 68 | 153 | 0.0 | 0.0 | 0.00 | 0.00 | 0.00 | 64 | 1010.5 |
| 20260510002223 | 69 | 154 | 0.0 | 0.0 | 0.00 | 0.00 | 0.00 | 62 | 1010.3 |
| 20260510001720 | 70 | 154 | 0.0 | 0.0 | 0.00 | 0.00 | 0.00 | 61 | 1010.4 |
| 20260510001219 | 70 | 149 | 0.0 | 0.0 | 0.00 | 0.00 | 0.00 | 60 | 1010.3 |
| 20260510000714 | 71 | 153 | 0.0 | 0.0 | 0.00 | 0.00 | 0.00 | 60 | 1010.0 |
| 20260510000212 | 71 | 152 | 0.0 | 0.0 | 0.00 | 0.00 | 0.00 | 58 | 1010.2 |
| 20260509235708 | 72 | 162 | 0.0 | 0.0 | 0.00 | 0.00 | 0.00 | 58 | 1010.1 |
| 20260509235204 | 72 | 131 | 0.0 | 1.0 | 0.00 | 0.00 | 0.00 | 55 | 1010.1 |
| 20260509234701 | 73 | 195 | 1.0 | 3.0 | 0.00 | 0.00 | 0.00 | 54 | 1010.0 |
| 20260509234158 | 73 | 162 | 1.0 | 1.0 | 0.00 | 0.00 | 0.00 | 54 | 1009.9 |
| 20260509233656 | 73 | 156 | 0.0 | 0.0 | 0.00 | 0.00 | 0.00 | 55 | 1010.0 |
| 20260509233153 | 73 | 158 | 0.0 | 1.0 | 0.00 | 0.00 | 0.00 | 55 | 1010.0 |
| 20260509232649 | 73 | 163 | 0.0 | 0.0 | 0.00 | 0.00 | 0.00 | 55 | 1010.0 |
| 20260509232146 | 73 | 157 | 0.0 | 1.0 | 0.00 | 0.00 | 0.00 | 55 | 1009.9 |
| 20260509231643 | 74 | 149 | 0.0 | 0.0 | 0.00 | 0.00 | 0.00 | 54 | 1010.1 |
| 20260509231140 | 74 | 154 | 0.0 | 0.0 | 0.00 | 0.00 | 0.00 | 52 | 1010.1 |
| 20260509230637 | 74 | 143 | 2.0 | 3.0 | 0.00 | 0.00 | 0.00 | 51 | 1010.1 |
| 20260509230134 | 75 | 155 | 0.0 | 1.0 | 0.00 | 0.00 | 0.00 | 52 | 1010.0 |
| 20260509225630 | 75 | 164 | 0.0 | 2.0 | 0.00 | 0.00 | 0.00 | 51 | 1009.9 |
| 20260509225125 | 75 | 138 | 1.0 | 1.0 | 0.00 | 0.00 | 0.00 | 50 | 1010.1 |
| 20260509224621 | 75 | 160 | 0.0 | 1.0 | 0.00 | 0.00 | 0.00 | 51 | 1009.9 |
| 20260509224118 | 75 | 167 | 1.0 | 2.0 | 0.00 | 0.00 | 0.00 | 50 | 1009.8 |
| 20260509223615 | 75 | 160 | 1.0 | 3.0 | 0.00 | 0.00 | 0.00 | 50 | 1010.0 |
| 20260509223113 | 76 | 178 | 1.0 | 2.0 | 0.00 | 0.00 | 0.00 | 50 | 1009.7 |
| 20260509222608 | 76 | 150 | 0.0 | 1.0 | 0.00 | 0.00 | 0.00 | 50 | 1010.0 |
| 20260509222105 | 76 | 156 | 0.0 | 3.0 | 0.00 | 0.00 | 0.00 | 51 | 1010.0 |
| 20260509221600 | 77 | 152 | 0.0 | 1.0 | 0.00 | 0.00 | 0.00 | 50 | 1010.0 |
| 20260509221056 | 77 | 158 | 1.0 | 3.0 | 0.00 | 0.00 | 0.00 | 51 | 1010.1 |
| 20260509220552 | 76 | 179 | 1.0 | 1.0 | 0.00 | 0.00 | 0.00 | 50 | 1010.0 |
| 20260509220049 | 76 | 205 | 2.0 | 2.0 | 0.00 | 0.00 | 0.00 | 50 | 1009.9 |
| 20260509215544 | 76 | 165 | 0.0 | 1.0 | 0.00 | 0.00 | 0.00 | 52 | 1009.8 |
| 20260509215042 | 75 | 160 | 0.0 | 1.0 | 0.00 | 0.00 | 0.00 | 51 | 1009.8 |
| 20260509214539 | 76 | 131 | 1.0 | 4.0 | 0.00 | 0.00 | 0.00 | 50 | 1009.9 |
| 20260509214036 | 77 | 139 | 0.0 | 4.0 | 0.00 | 0.00 | 0.00 | 50 | 1009.7 |
| 20260509213532 | 77 | 162 | 1.0 | 4.0 | 0.00 | 0.00 | 0.00 | 49 | 1009.9 |
| 20260509213029 | 77 | 172 | 0.0 | 6.0 | 0.00 | 0.00 | 0.00 | 49 | 1009.9 |
| 20260509212526 | 78 | 167 | 5.0 | 7.0 | 0.00 | 0.00 | 0.00 | 47 | 1009.9 |
| 20260509212023 | 78 | 164 | 5.0 | 8.0 | 0.00 | 0.00 | 0.00 | 47 | 1009.8 |
| 20260509211518 | 78 | 181 | 2.0 | 6.0 | 0.00 | 0.00 | 0.00 | 47 | 1009.8 |
| 20260509211016 | 78 | 179 | 2.0 | 10.0 | 0.00 | 0.00 | 0.00 | 48 | 1009.8 |
| 20260509210512 | 78 | 108 | 1.0 | 3.0 | 0.00 | 0.00 | 0.00 | 48 | 1009.8 |
| 20260509210009 | 78 | 182 | 2.0 | 8.0 | 0.00 | 0.00 | 0.00 | 48 | 1009.9 |
| 20260509205503 | 79 | 156 | 1.0 | 1.0 | 0.00 | 0.00 | 0.00 | 49 | 1009.7 |
| 20260509204958 | 79 | 160 | 0.0 | 3.0 | 0.00 | 0.00 | 0.00 | 49 | 1009.6 |